Flag for Maldives Weather past 2 weeks in Male, Maldives

Now
82 °F

Passing clouds.


Feels Like: 91 °F
Forecast: 83 / 87 °F
Wind: 12 mph from West

Location: Male Airport

Current Time: Aug 2, 2014 at 6:43:08 AM

Latest Report: Aug 2, 2014 at 6:00 AM


Visibility: N/A

Pressure: 29.83 "Hg

Humidity: 84%

Dew point: 77 °F

Location of MaleLocation

Historic Weather in Male — Graph

°F

Male temperature yesterday

Maximum temperature yesterday: 88 °F (at 10:00 AM)
Minimum temperature yesterday: 84 °F (at 12:00 AM)
Average temperature yesterday: 86 °F

Past Weeks' High & Low Weather Summary

 TemperatureHumidityPressure
High90 °F (Jul 21, 12:00 PM)94% (Aug 2, 5:00 AM)29.98 "Hg (Aug 2, 5:00 AM)
Low77 °F (Aug 2, 5:00 AM)63% (Jul 30, 1:00 PM)29.80 "Hg (Jul 18, 2:00 PM)
Average85 °F75%29.87 "Hg
* Reported Jul 18 5:00 AM — Aug 2 5:00 AM, Male, Weather by CustomWeather, © 2014

Note: Actual official high and low records may vary slightly from our data, if they occured in-between our weather recording intervals... More about our weather records

Advertising

Male weather history for previous 24 hours

 ConditionsComfort  
Time TempWeatherWind HumidityBarometerVisibility
5:00 AM
Aug 2
77 °FPassing clouds.7 mph94%29.83 "HgN/A
3:00 AM84 °FPassing clouds.10 mph79%29.83 "HgN/A
2:00 AM84 °FPassing clouds.10 mph79%29.83 "HgN/A
1:00 AM84 °FPassing clouds.8 mph79%29.83 "HgN/A
12:00 AM84 °FPassing clouds.9 mph84%29.86 "HgN/A
11:00 PM
Aug 1
84 °FPassing clouds.7 mph89%29.89 "HgN/A
10:00 PM84 °FPassing clouds.8 mph79%29.86 "HgN/A
9:00 PM84 °FPassing clouds.9 mph79%29.86 "HgN/A
8:00 PM86 °FPassing clouds.9 mph75%29.86 "HgN/A
7:00 PM86 °FPassing clouds.12 mph75%29.83 "HgN/A
6:00 PM86 °FPartly sunny.12 mph75%29.83 "HgN/A
5:00 PM86 °FPartly sunny.12 mph75%29.80 "HgN/A
4:00 PM88 °FPartly sunny.14 mph75%29.80 "HgN/A
3:00 PM88 °FScattered clouds.15 mph70%29.80 "HgN/A
2:00 PM88 °FScattered clouds.14 mph70%29.83 "HgN/A
1:00 PM88 °FScattered clouds.14 mph70%29.83 "HgN/A
12:00 PM88 °FScattered clouds.16 mph70%29.86 "HgN/A
11:00 AM88 °FPartly sunny.15 mph70%29.86 "HgN/A
10:00 AM88 °FPartly sunny.14 mph70%29.89 "HgN/A
9:00 AM86 °FPartly sunny.12 mph70%29.89 "HgN/A
8:00 AM86 °FScattered clouds.10 mph75%29.86 "HgN/A
7:00 AM84 °FPartly sunny.8 mph79%29.86 "HgN/A
6:00 AM84 °FPassing clouds.12 mph79%29.83 "HgN/A
Weather by CustomWeather, © 2014

See weather overviewHow to use our weather pages